TimeMDT,TemperatureF,Dew PointF,Humidity,Sea Level PressureIn,VisibilityMPH,Wind Direction,Wind SpeedMPH,Gust SpeedMPH,PrecipitationIn,Events,Conditions,WindDirDegrees,DateUTC
12:56 AM,30.0,25.0,82,29.99,-9999.0,Calm,Calm,-,N/A,,Unknown,0,2013-05-26 06:56:00
1:56 AM,28.9,25.0,85,29.99,-9999.0,Calm,Calm,-,N/A,,Unknown,0,2013-05-26 07:56:00
2:56 AM,28.9,25.0,85,29.96,-9999.0,Calm,Calm,-,N/A,,Unknown,0,2013-05-26 08:56:00
3:56 AM,28.9,25.0,85,29.99,-9999.0,NW,3.5,-,N/A,,Unknown,310,2013-05-26 09:56:00
4:56 AM,30.0,26.1,85,30.01,-9999.0,Calm,Calm,-,N/A,,Unknown,0,2013-05-26 10:56:00
5:56 AM,28.9,26.1,89,30.01,-9999.0,Calm,Calm,-,N/A,,Unknown,0,2013-05-26 11:56:00
6:56 AM,32.0,28.0,85,30.00,-9999.0,Calm,Calm,-,N/A,,Unknown,0,2013-05-26 12:56:00
7:56 AM,39.0,28.9,67,29.97,-9999.0,ESE,3.5,-,N/A,,Unknown,110,2013-05-26 13:56:00
8:56 AM,42.1,30.0,62,29.98,-9999.0,Calm,Calm,-,N/A,,Unknown,0,2013-05-26 14:56:00
9:56 AM,41.0,32.0,70,29.99,-9999.0,Calm,Calm,-,N/A,,Unknown,0,2013-05-26 15:56:00
10:56 AM,46.0,30.0,54,29.97,-9999.0,Calm,Calm,-,N/A,,Unknown,0,2013-05-26 16:56:00
11:56 AM,50.0,28.0,43,29.97,-9999.0,Calm,Calm,-,N/A,,Unknown,0,2013-05-26 17:56:00
12:56 PM,54.0,28.0,37,29.94,-9999.0,Calm,Calm,-,N/A,,Unknown,0,2013-05-26 18:56:00
1:56 PM,57.9,26.1,30,29.92,-9999.0,Variable,4.6,-,N/A,,Unknown,0,2013-05-26 19:56:00
2:56 PM,57.9,23.0,26,29.90,-9999.0,Variable,4.6,-,N/A,,Unknown,0,2013-05-26 20:56:00
3:56 PM,55.9,26.1,32,29.91,-9999.0,West,10.4,20.7,N/A,,Unknown,260,2013-05-26 21:56:00
4:56 PM,52.0,28.9,41,29.94,-9999.0,West,18.4,28.8,N/A,,Unknown,280,2013-05-26 22:56:00
5:56 PM,55.0,30.9,40,29.95,-9999.0,Variable,6.9,-,N/A,,Unknown,0,2013-05-26 23:56:00
6:56 PM,51.1,30.9,46,29.96,-9999.0,Variable,4.6,-,N/A,,Unknown,0,2013-05-27 00:56:00
7:56 PM,48.9,30.9,50,29.94,-9999.0,Calm,Calm,-,N/A,,Unknown,0,2013-05-27 01:56:00
8:56 PM,45.0,33.1,63,29.92,-9999.0,Calm,Calm,-,N/A,,Unknown,0,2013-05-27 02:56:00
9:56 PM,39.0,32.0,76,29.96,-9999.0,NW,3.5,-,N/A,,Unknown,310,2013-05-27 03:56:00
10:56 PM,37.0,30.9,79,29.93,-9999.0,NW,4.6,-,N/A,,Unknown,320,2013-05-27 04:56:00
11:56 PM,39.9,35.1,83,29.95,-9999.0,WNW,11.5,21.9,0.02,,Unknown,290,2013-05-27 05:56:00